Time,TemperatureF,DewpointF,PressureIn,WindDirection,WindDirectionDegrees,WindSpeedMPH,WindSpeedGustMPH,Humidity,HourlyPrecipIn,Conditions,Clouds,dailyrainin,SoftwareType,DateUTC
2013-02-04 00:10:00,27.3,21.0,29.80,WSW,240,2.0,4.0,77,0.00,,,0.01,weatherlink.com 1.10,2013-02-04 05:10:00,
2013-02-04 00:25:00,27.9,21.0,29.80,West,260,0.0,4.0,76,0.00,,,0.01,weatherlink.com 1.10,2013-02-04 05:25:00,
2013-02-04 00:40:00,28.3,21.0,29.80,West,260,1.0,5.0,75,0.00,,,0.01,weatherlink.com 1.10,2013-02-04 05:40:00,
2013-02-04 00:55:00,28.6,22.0,29.80,SW,224,3.0,7.0,76,0.00,,,0.01,weatherlink.com 1.10,2013-02-04 05:55:00,
2013-02-04 01:10:00,28.9,22.0,29.79,WSW,243,3.0,7.0,76,0.00,,,0.01,weatherlink.com 1.10,2013-02-04 06:10:00,
2013-02-04 01:26:00,28.6,22.0,29.79,WSW,238,1.0,6.0,75,0.00,,,0.01,weatherlink.com 1.10,2013-02-04 06:26:00,
2013-02-04 01:41:00,28.2,21.0,29.80,SSW,205,5.0,15.0,74,0.00,,,0.01,weatherlink.com 1.10,2013-02-04 06:41:00,
2013-02-04 01:56:00,27.9,20.0,29.80,WNW,300,1.0,11.0,71,0.00,,,0.01,weatherlink.com 1.10,2013-02-04 06:56:00,
2013-02-04 02:11:00,27.6,19.0,29.81,WSW,250,5.0,9.0,71,0.00,,,0.01,weatherlink.com 1.10,2013-02-04 07:11:00,
2013-02-04 02:26:00,27.5,19.0,29.81,WSW,238,1.0,12.0,69,0.00,,,0.01,weatherlink.com 1.10,2013-02-04 07:26:00,
2013-02-04 02:41:00,27.1,18.0,29.82,ENE,75,4.0,9.0,68,0.00,,,0.01,weatherlink.com 1.10,2013-02-04 07:41:00,
2013-02-04 02:56:00,26.8,17.0,29.82,WSW,238,0.0,12.0,66,0.00,,,0.01,weatherlink.com 1.10,2013-02-04 07:56:00,
2013-02-04 03:11:00,26.3,16.0,29.82,WSW,250,2.0,10.0,66,0.00,,,0.01,weatherlink.com 1.10,2013-02-04 08:11:00,
2013-02-04 03:26:00,26.0,15.0,29.83,West,280,2.0,11.0,64,0.00,,,0.01,weatherlink.com 1.10,2013-02-04 08:26:00,
2013-02-04 03:41:00,25.8,14.0,29.83,WNW,291,0.0,12.0,62,0.00,,,0.01,weatherlink.com 1.10,2013-02-04 08:41:00,
2013-02-04 03:56:00,25.5,14.0,29.84,WSW,256,6.0,14.0,61,0.00,,,0.01,weatherlink.com 1.10,2013-02-04 08:56:00,
2013-02-04 04:11:00,25.5,14.0,29.84,SW,231,4.0,15.0,61,0.00,,,0.01,weatherlink.com 1.10,2013-02-04 09:11:00,
2013-02-04 04:26:00,25.1,13.0,29.85,WNW,302,9.0,10.0,61,0.00,,,0.01,weatherlink.com 1.10,2013-02-04 09:26:00,
2013-02-04 04:41:00,24.9,13.0,29.86,NW,307,4.0,11.0,60,0.00,,,0.01,weatherlink.com 1.10,2013-02-04 09:41:00,
2013-02-04 04:56:00,24.8,12.0,29.88,WNW,283,7.0,12.0,59,0.00,,,0.01,weatherlink.com 1.10,2013-02-04 09:56:00,
2013-02-04 05:11:00,24.5,12.0,29.88,WSW,238,6.0,10.0,59,0.00,,,0.01,weatherlink.com 1.10,2013-02-04 10:11:00,
2013-02-04 05:26:00,24.4,11.0,29.88,WSW,252,5.0,10.0,58,0.00,,,0.01,weatherlink.com 1.10,2013-02-04 10:26:00,
2013-02-04 05:41:00,24.1,11.0,29.89,ESE,114,1.0,11.0,57,0.00,,,0.01,weatherlink.com 1.10,2013-02-04 10:41:00,
2013-02-04 05:56:00,23.9,11.0,29.89,SW,225,5.0,9.0,57,0.00,,,0.01,weatherlink.com 1.10,2013-02-04 10:56:00,
2013-02-04 06:11:00,23.8,10.0,29.90,WNW,292,3.0,8.0,56,0.00,,,0.01,weatherlink.com 1.10,2013-02-04 11:11:00,
2013-02-04 06:26:00,23.6,10.0,29.90,WSW,246,1.0,9.0,57,0.00,,,0.01,weatherlink.com 1.10,2013-02-04 11:26:00,
2013-02-04 06:41:00,23.6,9.0,29.91,SSE,166,3.0,12.0,55,0.00,,,0.01,weatherlink.com 1.10,2013-02-04 11:41:00,
2013-02-04 06:56:00,23.7,9.0,29.92,SW,235,1.0,11.0,54,0.00,,,0.01,weatherlink.com 1.10,2013-02-04 11:56:00,
2013-02-04 07:11:00,23.5,10.0,29.92,WSW,255,1.0,10.0,56,0.00,,,0.01,weatherlink.com 1.10,2013-02-04 12:11:00,
2013-02-04 07:26:00,23.5,10.0,29.92,NNW,327,5.0,12.0,56,0.00,,,0.01,weatherlink.com 1.10,2013-02-04 12:26:00,
2013-02-04 07:42:00,23.8,10.0,29.93,SSW,206,5.0,14.0,56,0.00,,,0.01,weatherlink.com 1.10,2013-02-04 12:42:00,
2013-02-04 07:57:00,24.5,10.0,29.94,WSW,242,6.0,8.0,55,0.00,,,0.01,weatherlink.com 1.10,2013-02-04 12:57:00,
2013-02-04 08:12:00,25.2,11.0,29.94,WNW,296,4.0,11.0,54,0.00,,,0.01,weatherlink.com 1.10,2013-02-04 13:12:00,
2013-02-04 08:27:00,25.8,12.0,29.94,WSW,245,7.0,8.0,55,0.00,,,0.01,weatherlink.com 1.10,2013-02-04 13:27:00,
2013-02-04 08:42:00,26.1,11.0,29.94,NE,50,5.0,11.0,53,0.00,,,0.01,weatherlink.com 1.10,2013-02-04 13:42:00,
2013-02-04 08:57:00,26.2,11.0,29.95,SW,219,2.0,13.0,52,0.00,,,0.01,weatherlink.com 1.10,2013-02-04 13:57:00,
2013-02-04 09:12:00,26.9,11.0,29.95,WSW,242,2.0,9.0,51,0.00,,,0.01,weatherlink.com 1.10,2013-02-04 14:12:00,
2013-02-04 09:27:00,27.1,11.0,29.95,SW,236,7.0,9.0,50,0.00,,,0.01,weatherlink.com 1.10,2013-02-04 14:27:00,
2013-02-04 09:42:00,27.1,11.0,29.95,NNE,20,2.0,12.0,50,0.00,,,0.01,weatherlink.com 1.10,2013-02-04 14:42:00,
2013-02-04 09:57:00,27.4,10.0,29.95,West,269,2.0,12.0,48,0.00,,,0.01,weatherlink.com 1.10,2013-02-04 14:57:00,
2013-02-04 10:12:00,27.8,11.0,29.96,ENE,65,2.0,10.0,49,0.00,,,0.01,weatherlink.com 1.10,2013-02-04 15:12:00,
2013-02-04 10:27:00,28.2,11.0,29.96,WSW,248,4.0,10.0,48,0.00,,,0.01,weatherlink.com 1.10,2013-02-04 15:27:00,
2013-02-04 10:42:00,28.3,10.0,29.95,NW,311,0.0,12.0,46,0.00,,,0.01,weatherlink.com 1.10,2013-02-04 15:42:00,
2013-02-04 10:57:00,28.7,10.0,29.95,SW,222,4.0,12.0,46,0.00,,,0.01,weatherlink.com 1.10,2013-02-04 15:57:00,
2013-02-04 11:12:00,29.3,10.0,29.95,West,273,0.0,9.0,45,0.00,,,0.01,weatherlink.com 1.10,2013-02-04 16:12:00,
2013-02-04 11:27:00,29.7,10.0,29.94,WSW,246,3.0,11.0,44,0.00,,,0.01,weatherlink.com 1.10,2013-02-04 16:27:00,
2013-02-04 11:42:00,29.7,10.0,29.93,West,266,5.0,12.0,43,0.00,,,0.01,weatherlink.com 1.10,2013-02-04 16:42:00,
2013-02-04 11:57:00,30.6,11.0,29.93,WSW,242,2.0,10.0,44,0.00,,,0.01,weatherlink.com 1.10,2013-02-04 16:57:00,
2013-02-04 12:12:00,30.7,10.0,29.93,WNW,289,3.0,15.0,42,0.00,,,0.00,weatherlink.com 1.10,2013-02-04 17:12:00,
2013-02-04 12:27:00,31.0,10.0,29.93,West,260,3.0,13.0,42,0.00,,,0.00,weatherlink.com 1.10,2013-02-04 17:27:00,
2013-02-04 12:42:00,31.4,11.0,29.92,SSW,206,2.0,14.0,42,0.00,,,0.00,weatherlink.com 1.10,2013-02-04 17:42:00,
2013-02-04 12:57:00,31.1,10.0,29.92,WSW,240,7.0,13.0,41,0.00,,,0.00,weatherlink.com 1.10,2013-02-04 17:57:00,
2013-02-04 13:12:00,30.7,10.0,29.92,SW,223,4.0,12.0,42,0.00,,,0.00,weatherlink.com 1.10,2013-02-04 18:12:00,
2013-02-04 13:27:00,30.4,10.0,29.91,SW,224,3.0,16.0,43,0.00,,,0.00,weatherlink.com 1.10,2013-02-04 18:27:00,
2013-02-04 13:42:00,31.1,10.0,29.91,WSW,240,6.0,13.0,42,0.00,,,0.00,weatherlink.com 1.10,2013-02-04 18:42:00,
2013-02-04 13:57:00,30.7,10.0,29.91,SW,236,7.0,14.0,43,0.00,,,0.00,weatherlink.com 1.10,2013-02-04 18:57:00,
2013-02-04 14:12:00,31.5,10.0,29.91,West,271,2.0,12.0,41,0.00,,,0.00,weatherlink.com 1.10,2013-02-04 19:12:00,
2013-02-04 14:27:00,31.1,10.0,29.91,SSW,201,2.0,10.0,41,0.00,,,0.00,weatherlink.com 1.10,2013-02-04 19:27:00,
2013-02-04 14:42:00,31.7,11.0,29.90,WSW,238,10.0,11.0,42,0.00,,,0.00,weatherlink.com 1.10,2013-02-04 19:42:00,
2013-02-04 14:57:00,31.6,10.0,29.90,West,264,4.0,11.0,40,0.00,,,0.00,weatherlink.com 1.10,2013-02-04 19:57:00,
2013-02-04 15:12:00,31.6,10.0,29.91,West,266,3.0,12.0,40,0.00,,,0.00,weatherlink.com 1.10,2013-02-04 20:12:00,
2013-02-04 15:27:00,32.0,10.0,29.91,WNW,293,2.0,8.0,40,0.00,,,0.00,weatherlink.com 1.10,2013-02-04 20:27:00,
2013-02-04 15:42:00,30.9,10.0,29.91,SW,222,3.0,9.0,41,0.00,,,0.00,weatherlink.com 1.10,2013-02-04 20:42:00,
2013-02-04 15:57:00,30.7,10.0,29.91,SSE,157,4.0,7.0,42,0.00,,,0.00,weatherlink.com 1.10,2013-02-04 20:57:00,
2013-02-04 16:12:00,30.2,10.0,29.91,SW,235,4.0,9.0,42,0.00,,,0.00,weatherlink.com 1.10,2013-02-04 21:12:00,
2013-02-04 16:27:00,29.6,9.0,29.91,WSW,249,8.0,10.0,43,0.00,,,0.00,weatherlink.com 1.10,2013-02-04 21:27:00,
2013-02-04 16:42:00,29.5,10.0,29.92,WNW,288,2.0,9.0,44,0.00,,,0.00,weatherlink.com 1.10,2013-02-04 21:42:00,
2013-02-04 16:57:00,29.2,10.0,29.92,East,88,0.0,8.0,45,0.00,,,0.00,weatherlink.com 1.10,2013-02-04 21:57:00,
2013-02-04 17:12:00,28.7,10.0,29.93,WSW,254,6.0,8.0,45,0.00,,,0.00,weatherlink.com 1.10,2013-02-04 22:12:00,
2013-02-04 17:27:00,28.5,9.0,29.94,South,174,3.0,12.0,44,0.00,,,0.00,weatherlink.com 1.10,2013-02-04 22:27:00,
2013-02-04 17:42:00,28.4,9.0,29.94,West,277,0.0,11.0,44,0.00,,,0.00,weatherlink.com 1.10,2013-02-04 22:42:00,
2013-02-04 17:58:00,28.3,10.0,29.94,WSW,238,1.0,8.0,46,0.00,,,0.00,weatherlink.com 1.10,2013-02-04 22:58:00,
2013-02-04 18:13:00,28.2,9.0,29.95,WSW,246,1.0,8.0,45,0.00,,,0.00,weatherlink.com 1.10,2013-02-04 23:13:00,
2013-02-04 18:28:00,28.0,10.0,29.95,WNW,290,1.0,4.0,47,0.00,,,0.00,weatherlink.com 1.10,2013-02-04 23:28:00,
2013-02-04 18:43:00,28.1,10.0,29.96,SW,236,2.0,10.0,46,0.00,,,0.00,weatherlink.com 1.10,2013-02-04 23:43:00,
2013-02-04 18:58:00,28.1,10.0,29.96,SW,225,3.0,10.0,47,0.00,,,0.00,weatherlink.com 1.10,2013-02-04 23:58:00,
2013-02-04 19:13:00,28.0,10.0,29.96,SW,231,0.0,8.0,48,0.00,,,0.00,weatherlink.com 1.10,2013-02-05 00:13:00,
2013-02-04 19:28:00,28.0,10.0,29.96,WSW,253,0.0,8.0,48,0.00,,,0.00,weatherlink.com 1.10,2013-02-05 00:28:00,
2013-02-04 19:43:00,28.1,11.0,29.96,SW,235,1.0,7.0,49,0.00,,,0.00,weatherlink.com 1.10,2013-02-05 00:43:00,
2013-02-04 19:58:00,28.2,11.0,29.97,WSW,241,2.0,8.0,48,0.00,,,0.00,weatherlink.com 1.10,2013-02-05 00:58:00,
2013-02-04 20:13:00,28.1,11.0,29.97,WSW,249,3.0,9.0,49,0.00,,,0.00,weatherlink.com 1.10,2013-02-05 01:13:00,
2013-02-04 20:28:00,28.0,11.0,29.97,WSW,248,1.0,8.0,49,0.00,,,0.00,weatherlink.com 1.10,2013-02-05 01:28:00,
2013-02-04 20:43:00,27.8,11.0,29.97,West,269,1.0,5.0,50,0.00,,,0.00,weatherlink.com 1.10,2013-02-05 01:43:00,
2013-02-04 20:58:00,27.5,11.0,29.97,WSW,249,1.0,3.0,51,0.00,,,0.00,weatherlink.com 1.10,2013-02-05 01:58:00,
2013-02-04 21:13:00,27.2,12.0,29.97,WSW,255,0.0,2.0,52,0.00,,,0.00,weatherlink.com 1.10,2013-02-05 02:13:00,
2013-02-04 21:28:00,27.2,12.0,29.97,WSW,254,0.0,2.0,54,0.00,,,0.00,weatherlink.com 1.10,2013-02-05 02:28:00,
2013-02-04 21:43:00,27.2,13.0,29.97,WSW,252,1.0,2.0,55,0.00,,,0.00,weatherlink.com 1.10,2013-02-05 02:43:00,
2013-02-04 21:58:00,27.7,13.0,29.96,WSW,254,0.0,3.0,54,0.00,,,0.00,weatherlink.com 1.10,2013-02-05 02:58:00,
2013-02-04 22:13:00,28.1,13.0,29.97,WSW,252,0.0,3.0,53,0.00,,,0.00,weatherlink.com 1.10,2013-02-05 03:13:00,
2013-02-04 22:28:00,28.3,13.0,29.97,WSW,250,1.0,3.0,54,0.00,,,0.00,weatherlink.com 1.10,2013-02-05 03:28:00,
2013-02-04 22:43:00,28.3,14.0,29.97,West,269,0.0,2.0,55,0.00,,,0.00,weatherlink.com 1.10,2013-02-05 03:43:00,
2013-02-04 22:58:00,28.5,14.0,29.97,WSW,257,0.0,2.0,54,0.00,,,0.00,weatherlink.com 1.10,2013-02-05 03:58:00,
2013-02-04 23:13:00,28.8,14.0,29.97,West,270,1.0,6.0,54,0.00,,,0.00,weatherlink.com 1.10,2013-02-05 04:13:00,
2013-02-04 23:28:00,28.3,17.0,29.98,SW,235,2.0,10.0,64,0.00,,,0.00,weatherlink.com 1.10,2013-02-05 04:28:00,
2013-02-04 23:43:00,28.3,18.0,29.97,WNW,290,2.0,5.0,66,0.00,,,0.00,weatherlink.com 1.10,2013-02-05 04:43:00,
2013-02-04 23:58:00,28.4,18.0,29.97,WSW,250,2.0,6.0,66,0.00,,,0.00,weatherlink.com 1.10,2013-02-05 04:58:00,